• In Netherlands
  • List of Countries
  • For 7 days
  • Water Temperature
  • Satellite Maps
  • Weather Map
  • Weather Widgets
  • user-avatar
    Login

    Hourly Weather Blagoevgrad

    Today, 25 January, Wednesday

    Time Temperature Precipitation Wind Pressure Humidity
    00:00 -4°C° 0 mm 2 mps 721 mmHg 94%
    01:00 -5°C° 0 mm 2 mps 721 mmHg 94%
    02:00 -5°C° 0 mm 2 mps 721 mmHg 94%
    03:00 -5°C° 0 mm 2 mps 721 mmHg 94%
    04:00 -5°C° 0 mm 2 mps 721 mmHg 93%
    05:00 -6°C° 0 mm 2 mps 721 mmHg 93%
    06:00 -6°C° 0 mm 2 mps 722 mmHg 93%
    07:00 -6°C° 0 mm 2 mps 722 mmHg 92%
    08:00 -6°C° 0 mm 2 mps 722 mmHg 92%
    09:00 -4°C° 0 mm 2 mps 723 mmHg 90%
    10:00 -3°C° 0 mm 2 mps 724 mmHg 89%
    11:00 -1°C° 0 mm 2 mps 724 mmHg 87%
    12:00 -1°C° 0 mm 2 mps 724 mmHg 87%
    13:00 +1°C° 0 mm 2 mps 724 mmHg 87%
    14:00 +2°C° 0 mm 2 mps 724 mmHg 87%
    15:00 +1°C° 0 mm 2 mps 724 mmHg 89%
    16:00 +1°C° 0 mm 1 mps 724 mmHg 91%
    17:00 0°C° 0 mm 1 mps 723 mmHg 92%
    18:00 -2°C° 0 mm 1 mps 724 mmHg 93%
    19:00 -3°C° 0 mm 1 mps 724 mmHg 94%
    20:00 -6°C° 0 mm 1 mps 724 mmHg 95%
    21:00 -6°C° 0 mm 1 mps 724 mmHg 94%
    22:00 -7°C° 0 mm 1 mps 725 mmHg 93%
    23:00 -7°C° 0 mm 1 mps 725 mmHg 93%

    Tomorrow, 26 January, Thursday

    Time Temperature Precipitation Wind Pressure Humidity
    00:00 -7°C° 0 mm 1 mps 725 mmHg 92%
    01:00 -7°C° 0 mm 1 mps 725 mmHg 92%
    02:00 -8°C° 0 mm 1 mps 726 mmHg 91%
    03:00 -8°C° 0 mm 1 mps 726 mmHg 91%
    04:00 -8°C° 0 mm 1 mps 726 mmHg 91%
    05:00 -8°C° 0 mm 1 mps 726 mmHg 90%
    06:00 -8°C° 0 mm 1 mps 726 mmHg 90%
    07:00 -8°C° 0 mm 1 mps 726 mmHg 90%
    08:00 -7°C° 0 mm 1 mps 727 mmHg 90%
    09:00 -4°C° 0 mm 1 mps 727 mmHg 87%
    10:00 -2°C° 0 mm 1 mps 728 mmHg 85%
    11:00 0°C° 0 mm 1 mps 728 mmHg 83%
    12:00 +1°C° 0 mm 1 mps 728 mmHg 83%
    13:00 +2°C° 0 mm 1 mps 728 mmHg 82%
    14:00 +2°C° 0 mm 1 mps 728 mmHg 82%
    15:00 +1°C° 0 mm 1 mps 728 mmHg 85%
    16:00 +1°C° 0 mm 1 mps 728 mmHg 87%
    17:00 0°C° 0 mm 1 mps 728 mmHg 90%
    18:00 -2°C° 0 mm 1 mps 728 mmHg 91%
    19:00 -3°C° 0 mm 1 mps 729 mmHg 92%
    20:00 -6°C° 0 mm 1 mps 729 mmHg 93%
    21:00 -7°C° 0 mm 1 mps 729 mmHg 93%
    22:00 -7°C° 0 mm 1 mps 730 mmHg 92%
    23:00 -8°C° 0 mm 1 mps 730 mmHg 91%

    Day after tomorrow, 27 January, Friday

    Time Temperature Precipitation Wind Pressure Humidity
    00:00 -9°C° 0 mm 1 mps 730 mmHg 91%
    01:00 -9°C° 0 mm 1 mps 730 mmHg 91%
    02:00 -10°C° 0 mm 1 mps 730 mmHg 90%
    03:00 -10°C° 0 mm 1 mps 730 mmHg 89%
    04:00 -10°C° 0 mm 1 mps 729 mmHg 89%
    05:00 -10°C° 0 mm 1 mps 729 mmHg 88%
    06:00 -11°C° 0 mm 1 mps 729 mmHg 87%
    07:00 -11°C° 0 mm 1 mps 729 mmHg 86%
    08:00 -11°C° 0 mm 1 mps 729 mmHg 85%
    09:00 -7°C° 0 mm 1 mps 730 mmHg 81%
    10:00 -4°C° 0 mm 0 mps 730 mmHg 78%
    11:00 -1°C° 0 mm 0 mps 731 mmHg 74%
    12:00 0°C° 0 mm 0 mps 730 mmHg 74%
    13:00 +2°C° 0 mm 1 mps 730 mmHg 73%
    14:00 +3°C° 0 mm 1 mps 729 mmHg 73%
    15:00 +1°C° 0 mm 1 mps 728 mmHg 77%
    16:00 -1°C° 0 mm 1 mps 728 mmHg 82%
    17:00 -2°C° 0 mm 1 mps 727 mmHg 87%
    18:00 -3°C° 0 mm 1 mps 727 mmHg 86%
    19:00 -6°C° 0 mm 1 mps 727 mmHg 86%
    20:00 -7°C° 0 mm 1 mps 727 mmHg 86%
    21:00 -7°C° 0 mm 1 mps 727 mmHg 83%
    22:00 -7°C° 0 mm 1 mps 727 mmHg 79%
    23:00 -7°C° 0 mm 1 mps 726 mmHg 76%

    28 January, Saturday

    Time Temperature Precipitation Wind Pressure Humidity
    00:00 -7°C° 0 mm 1 mps 726 mmHg 74%
    01:00 -7°C° 0 mm 1 mps 726 mmHg 72%
    02:00 -7°C° 0 mm 0 mps 726 mmHg 70%
    03:00 -7°C° 0 mm 0 mps 725 mmHg 69%
    04:00 -7°C° 0 mm 0 mps 725 mmHg 67%
    05:00 -7°C° 0 mm 0 mps 725 mmHg 66%
    06:00 -7°C° 0 mm 0 mps 725 mmHg 65%
    07:00 -7°C° 0 mm 0 mps 725 mmHg 64%
    08:00 -7°C° 0 mm 0 mps 725 mmHg 63%
    09:00 -3°C° 0 mm 0 mps 726 mmHg 66%
    10:00 0°C° 0 mm 0 mps 726 mmHg 70%
    11:00 +4°C° 0 mm 0 mps 727 mmHg 74%
    12:00 +4°C° 0 mm 0 mps 727 mmHg 75%
    13:00 +5°C° 0 mm 0 mps 726 mmHg 76%
    14:00 +6°C° 0 mm 1 mps 726 mmHg 77%
    15:00 +4°C° 0 mm 1 mps 726 mmHg 80%
    16:00 +2°C° 0 mm 1 mps 725 mmHg 83%
    17:00 0°C° 0 mm 0 mps 725 mmHg 86%
    18:00 -2°C° 0 mm 0 mps 725 mmHg 87%
    19:00 -3°C° 0 mm 0 mps 725 mmHg 87%
    20:00 -5°C° 0 mm 0 mps 725 mmHg 88%
    21:00 -5°C° 0 mm 0 mps 725 mmHg 87%
    22:00 -5°C° 0 mm 0 mps 725 mmHg 87%
    23:00 -5°C° 0 mm 0 mps 725 mmHg 86%

    29 January, Sunday

    Time Temperature Precipitation Wind Pressure Humidity
    00:00 -5°C° 0 mm 0 mps 725 mmHg 86%
    01:00 -5°C° 0 mm 0 mps 725 mmHg 86%
    02:00 -5°C° 0 mm 0 mps 725 mmHg 85%
    03:00 -5°C° 0 mm 0 mps 725 mmHg 85%
    04:00 -5°C° 0 mm 0 mps 725 mmHg 84%
    05:00 -6°C° 0 mm 0 mps 725 mmHg 84%
    06:00 -6°C° 0 mm 0 mps 725 mmHg 84%
    07:00 -6°C° 0 mm 0 mps 726 mmHg 84%
    08:00 -6°C° 0 mm 0 mps 726 mmHg 85%
    09:00 -2°C° 0 mm 0 mps 726 mmHg 82%
    10:00 +1°C° 0 mm 0 mps 727 mmHg 79%
    11:00 +4°C° 0 mm 0 mps 728 mmHg 76%
    12:00 +4°C° 0 mm 0 mps 727 mmHg 77%
    13:00 +6°C° 0 mm 1 mps 727 mmHg 78%
    14:00 +6°C° 0 mm 1 mps 727 mmHg 79%
    15:00 +5°C° 0 mm 1 mps 726 mmHg 83%
    16:00 +3°C° 0 mm 1 mps 726 mmHg 87%
    17:00 0°C° 0 mm 0 mps 726 mmHg 90%
    18:00 -1°C° 0 mm 0 mps 726 mmHg 92%
    19:00 -3°C° 0 mm 0 mps 726 mmHg 94%
    20:00 -4°C° 0 mm 0 mps 726 mmHg 95%
    21:00 -4°C° 0 mm 0 mps 726 mmHg 95%
    22:00 -4°C° 0 mm 0 mps 726 mmHg 95%
    23:00 -4°C° 0 mm 0 mps 726 mmHg 95%

    30 January, Monday

    Time Temperature Precipitation Wind Pressure Humidity
    00:00 -5°C° 0 mm 0 mps 726 mmHg 95%
    01:00 -5°C° 0 mm 0 mps 725 mmHg 95%
    02:00 -5°C° 0 mm 0 mps 725 mmHg 95%
    03:00 -5°C° 0 mm 0 mps 725 mmHg 95%
    04:00 -5°C° 0 mm 0 mps 725 mmHg 95%
    05:00 -4°C° 0 mm 1 mps 725 mmHg 95%
    06:00 -4°C° 0 mm 1 mps 725 mmHg 95%
    07:00 -4°C° 0 mm 1 mps 725 mmHg 94%
    08:00 -4°C° 0 mm 1 mps 725 mmHg 94%
    09:00 -1°C° 0 mm 1 mps 725 mmHg 90%
    10:00 +2°C° 0 mm 1 mps 725 mmHg 86%
    11:00 +5°C° 0 mm 1 mps 726 mmHg 83%
    12:00 +6°C° 0 mm 1 mps 725 mmHg 83%
    13:00 +6°C° 0 mm 1 mps 725 mmHg 82%
    14:00 +7°C° 0 mm 1 mps 724 mmHg 82%
    15:00 +5°C° 0 mm 1 mps 724 mmHg 86%
    16:00 +4°C° 0 mm 1 mps 724 mmHg 89%
    17:00 +2°C° 0 mm 1 mps 723 mmHg 93%
    18:00 +1°C° 0 mm 1 mps 723 mmHg 93%
    19:00 0°C° 0 mm 1 mps 723 mmHg 94%
    20:00 -2°C° 0 mm 1 mps 723 mmHg 94%
    21:00 -2°C° 0 mm 1 mps 723 mmHg 94%
    22:00 -2°C° 0 mm 1 mps 723 mmHg 93%
    23:00 -2°C° 0 mm 1 mps 723 mmHg 92%
    Show more